Le nostre stazioni meteo in Italia

Pubblicità
Il mio iltempo24.it
Treviso/Istrana, Italia (16098): Temperatura & dewpoint: 10.07.2018 20:00:00 - 16.07.2018 20:00:00 (CEST)Treviso/Istrana, Italia (16098): velocità del vento: 10.07.2018 20:00:00 - 16.07.2018 20:00:00 (CEST)Treviso/Istrana, Italia (16098): direzione del vento: 10.07.2018 20:00:00 - 16.07.2018 20:00:00 (CEST)Treviso/Istrana, Italia (16098): reduced air pressure: 10.07.2018 20:00:00 - 16.07.2018 20:00:00 (CEST)Treviso/Istrana, Italia (16098): visibility: 10.07.2018 20:00:00 - 16.07.2018 20:00:00 (CEST)
Data & Tempo tt [°C] td [°C] ff [km/h] ff [kn] dd ppp [hPa] vv [km]
16.07.2018 20:00:00 23,8 20,7 0 0 N 1009,6 6
16.07.2018 19:00:00 24,8 20,7 8 4 NO 1010,5 6
16.07.2018 18:00:00 27,2 21,5 9 5 S 1010,2 12
16.07.2018 17:00:00 27,6 20,7 11 6 S 1010,3 15
16.07.2018 16:00:00 28,4 20,2 9 5 SO 1011,0 25
16.07.2018 15:00:00 29,8 20,9 9 5 SSE 1011,0 25
16.07.2018 14:00:00 29,2 21,2 5 3 SSE 1011,5 30
16.07.2018 13:00:00 29,0 21,2 5 3 O 1012,2 30
16.07.2018 12:00:00 27,6 20,7 8 4 OSO 1012,3 30
16.07.2018 11:00:00 26,8 21,3 0 0 N 1012,4 30
16.07.2018 10:00:00 25,2 21,9 5 3 ONO 1012,8 30
16.07.2018 09:00:00 23,4 20,9 8 4 NNO 1012,9 30
16.07.2018 08:00:00 21,8 20,3 9 5 OSO 1013,1 40
16.07.2018 07:00:00 21,0 20,0 9 5 N 1012,8 30
16.07.2018 06:00:00 21,4 20,0 2 1 NNE 1013,1 12
16.07.2018 05:00:00 21,0 19,1 5 3 ONO 1013,5 10
16.07.2018 04:00:00 21,2 19,0 2 1 ONO 1013,2 20
16.07.2018 03:00:00 21,4 18,6 5 3 ONO 1013,1 20
16.07.2018 02:00:00 21,0 18,6 8 4 NNE 1014,2 20
16.07.2018 01:00:00 21,4 18,2 8 4 NNO 1014,8 20
16.07.2018 00:00:00 22,0 18,2 15 8 NE 1014,9 9
15.07.2018 23:00:00 22,8 17,3 13 7 N 1014,6 8
15.07.2018 22:00:00 26,4 18,8 22 12 ENE 1012,7 20
15.07.2018 21:00:00 28,2 19,4 11 6 ESE 1011,7 18
15.07.2018 20:00:00 30,0 18,8 4 2 SE 1012,2 20
15.07.2018 19:00:00 31,0 19,7 5 3 SO 1012,5 25
15.07.2018 18:00:00 30,8 20,1 5 3 SSO 1012,1 25
15.07.2018 17:00:00 30,4 20,3 4 2 ESE 1012,6 30
15.07.2018 16:00:00 30,0 20,3 11 6 SO 1013,5 30
15.07.2018 15:00:00 31,2 21,4 11 6 S 1013,8 30
15.07.2018 14:00:00 30,6 21,1 8 4 ESE 1014,0 30
15.07.2018 13:00:00 29,6 20,2 8 4 ENE 1014,1 30
15.07.2018 12:00:00 29,8 20,9 8 4 SE 1014,6 30
15.07.2018 11:00:00 28,6 17,8 8 4 NNE 1014,6 30
15.07.2018 10:00:00 27,6 20,9 8 4 N 1014,7 30
15.07.2018 09:00:00 26,0 21,9 5 3 NE 1015,3 25
15.07.2018 08:00:00 24,4 21,1 5 3 NNE 1014,4 15
15.07.2018 07:00:00 23,2 20,2 8 4 N 1014,4 15
15.07.2018 06:00:00 23,0 20,7 13 7 N 1014,6 15
15.07.2018 05:00:00 22,0 19,9 0 0 N 1014,8 15
15.07.2018 04:00:00 22,0 19,9 0 0 N 1015,1 15
15.07.2018 03:00:00 22,0 20,3 0 0 N 1015,3 15
15.07.2018 02:00:00 21,4 17,8 0 0 N 1015,7 20
15.07.2018 01:00:00 22,8 20,5 5 3 O 1015,7 15
15.07.2018 00:00:00 22,8 20,5 5 3 NNO 1015,7 20
14.07.2018 23:00:00 23,0 20,7 8 4 N 1015,7 15
14.07.2018 22:00:00 22,0 19,4 8 4 NE 1016,5 7
14.07.2018 21:00:00 21,8 18,2 9 5 O 1016,1 4,0
14.07.2018 20:00:00 25,6 19,5 13 7 NNE 1014,2 4,0
14.07.2018 19:00:00 29,4 20,5 15 8 SE 1014,0 12
14.07.2018 18:00:00 30,4 21,2 11 6 SE 1014,3 12
14.07.2018 17:00:00 30,8 21,3 11 6 S 1014,6 15
14.07.2018 16:00:00 31,2 21,4 11 6 S 1015,1 15
14.07.2018 15:00:00 30,8 20,7 8 4 OSO 1015,8 18
14.07.2018 14:00:00 30,6 21,4 15 8 OSO 1016,3 18
14.07.2018 13:00:00 30,2 21,8 11 6 SO 1016,6 18
14.07.2018 12:00:00 29,4 21,9 8 4 SSO 1016,9 20
14.07.2018 11:00:00 27,8 21,1 4 2 S 1017,1 20
14.07.2018 10:00:00 26,4 21,6 5 3 OSO 1017,4 25
14.07.2018 09:00:00 24,8 20,9 4 2 OSO 1017,4 25
14.07.2018 08:00:00 23,2 21,1 11 6 N 1017,4 20
14.07.2018 07:00:00 22,2 20,5 0 0 N 1017,7 10
14.07.2018 06:00:00 22,6 20,3 8 4 E 1017,5 12
14.07.2018 05:00:00 22,6 20,3 11 6 ENE 1017,6 10
14.07.2018 04:00:00 23,0 20,0 8 4 NE 1017,8 10
14.07.2018 03:00:00 23,0 19,4 0 0 N 1017,6 10
14.07.2018 02:00:00 23,0 17,2 2 1 ENE 1017,8 10
14.07.2018 01:00:00 27,0 22,2 5 3 NNO 1016,5 10
14.07.2018 00:00:00 23,4 18,7 0 0 N 1017,6 10
13.07.2018 23:00:00 24,0 18,2 8 4 NNE 1017,6 10
13.07.2018 22:00:00 25,0 17,2 0 0 N 1016,3 10
13.07.2018 21:00:00 27,0 17,2 4 2 S 1016,0 10
13.07.2018 20:00:00 28,2 16,2 0 0 N 1016,0 15
13.07.2018 19:00:00 27,8 16,4 9 5 SO 1016,1 20
13.07.2018 18:00:00 28,8 17,4 9 5 OSO 1016,0 20
13.07.2018 17:00:00 29,0 17,2 8 4 S 1016,4 25
13.07.2018 16:00:00 29,4 15,2 8 4 OSO 1016,5 25
13.07.2018 15:00:00 28,2 16,8 8 4 SSO 1016,9 25
13.07.2018 14:00:00 28,0 16,9 5 3 SE 1016,9 25
13.07.2018 13:00:00 27,4 18,4 5 3 NNE 1017,6 30
13.07.2018 12:00:00 27,0 18,3 9 5 ESE 1017,6 30
13.07.2018 11:00:00 26,0 18,9 8 4 ENE 1017,5 25
13.07.2018 10:00:00 25,0 19,4 5 3 NE 1017,1 25
13.07.2018 09:00:00 23,4 19,4 5 3 NNO 1017,1 30
13.07.2018 08:00:00 22,4 20,0 9 5 NNO 1016,9 30
13.07.2018 07:00:00 21,0 19,7 0 0 N 1016,5 30
13.07.2018 06:00:00 21,0 19,5 0 0 N 1016,5 25
13.07.2018 05:00:00 21,0 19,3 5 3 NNE 1016,1 25
13.07.2018 04:00:00 21,0 18,9 8 4 N 1016,3 12
13.07.2018 03:00:00 21,2 18,8 13 7 ENE 1016,0 10
13.07.2018 02:00:00 22,2 19,9 15 8 ENE 1015,7 8
13.07.2018 01:00:00 23,6 21,1 16 9 ENE 1015,6 8
13.07.2018 00:00:00 24,2 21,3 0 0 N 1015,2 8
12.07.2018 23:00:00 24,8 20,9 0 0 N 1015,1 10
12.07.2018 22:00:00 25,4 20,9 0 0 N 1014,7 12
12.07.2018 21:00:00 25,6 20,2 8 4 S 1014,1 12
12.07.2018 20:00:00 26,2 18,9 5 3 S 1013,6 15
12.07.2018 19:00:00 27,0 19,9 4 2 SSE 1013,9 15
12.07.2018 18:00:00 27,0 19,9 4 2 SSE 1013,9 15
12.07.2018 17:00:00 26,6 19,0 9 5 SSO 1013,8 15
12.07.2018 16:00:00 26,0 17,6 8 4 S 1014,1 15
12.07.2018 15:00:00 27,6 18,6 4 2 NE 1014,2 15
12.07.2018 14:00:00 27,0 18,6 11 6 E 1014,4 15
12.07.2018 13:00:00 26,6 18,2 9 5 E 1015,0 20
12.07.2018 12:00:00 26,0 18,2 11 6 ENE 1014,7 20
12.07.2018 11:00:00 25,0 18,0 15 8 E 1014,7 20
12.07.2018 10:00:00 24,2 17,9 16 9 E 1014,6 25
12.07.2018 09:00:00 23,4 18,1 15 8 E 1014,7 25
12.07.2018 08:00:00 22,0 18,2 9 5 ENE 1014,7 30
12.07.2018 07:00:00 21,0 18,0 9 5 NE 1014,4 20
12.07.2018 06:00:00 21,8 18,8 11 6 E 1014,0 20
12.07.2018 05:00:00 21,8 19,2 11 6 E 1014,0 15
12.07.2018 04:00:00 22,0 19,4 5 3 NNE 1013,7 15
12.07.2018 03:00:00 22,0 19,5 5 3 NNE 1013,8 15
12.07.2018 02:00:00 22,0 19,6 8 4 ENE 1013,8 15
12.07.2018 01:00:00 22,0 19,4 9 5 NE 1014,1 15
12.07.2018 00:00:00 22,4 19,6 8 4 N 1013,9 15
11.07.2018 23:00:00 23,0 19,0 5 3 E 1013,4 15
11.07.2018 22:00:00 23,6 18,7 5 3 E 1013,0 15
11.07.2018 21:00:00 24,8 18,0 8 4 E 1012,2 15
11.07.2018 20:00:00 25,2 17,7 9 5 E 1011,7 15
11.07.2018 19:00:00 25,4 17,9 9 5 E 1011,4 15
11.07.2018 18:00:00 25,2 18,6 11 6 ESE 1011,2 15
11.07.2018 17:00:00 25,2 18,7 9 5 ESE 1011,6 15
11.07.2018 16:00:00 25,2 18,9 9 5 ESE 1011,8 15
11.07.2018 15:00:00 24,4 18,1 9 5 E 1011,8 12
11.07.2018 14:00:00 24,8 18,3 13 7 E 1011,7 15
11.07.2018 13:00:00 25,0 18,9 11 6 E 1012,0 15
11.07.2018 12:00:00 24,0 19,9 11 6 NE 1012,2 15
11.07.2018 11:00:00 22,6 19,8 9 5 NE 1012,4 15
11.07.2018 10:00:00 22,2 20,1 11 6 ENE 1012,2 15
11.07.2018 09:00:00 21,4 19,9 11 6 NE 1012,1 12
11.07.2018 08:00:00 21,0 20,2 5 3 E 1012,2 15
11.07.2018 07:00:00 20,2 19,4 9 5 NE 1012,1 12
11.07.2018 06:00:00 20,0 18,8 11 6 ENE 1012,1 12
11.07.2018 05:00:00 20,0 18,7 9 5 ENE 1012,1 10
11.07.2018 04:00:00 - - - - - - -
11.07.2018 03:00:00 20,0 19,2 9 5 E 1012,1 10
11.07.2018 02:00:00 20,0 19,2 9 5 ENE 1012,7 10
11.07.2018 01:00:00 20,2 19,0 13 7 NNE 1013,0 6
11.07.2018 00:00:00 20,2 18,2 22 12 N 1012,3 6
10.07.2018 23:00:00 21,2 18,8 16 9 NNE 1011,8 10
10.07.2018 22:00:00 22,0 19,4 13 7 NNE 1012,0 8
10.07.2018 21:00:00 23,0 20,7 0 0 N 1011,8 8
10.07.2018 20:00:00 23,4 18,7 11 6 N 1011,0 10

tt = Temperatura
td = dewpoint
ff = velocità del vento
dd = direzione del vento
ppp = reduced air pressure
vv = visibility

Stazioni seguenti

WeatherPro
AMSI
MeteoEarth